Simultaneous Nadir Overpasses (SNOs) Predictions

Prediction of SNOs between METOP-C and LANDSAT-8 Satellite Orbit:

Table of predicted SNOs for the next 14.0 days since TLE Epoch: 8/15/2025
Index Date (METOP-C) Time (METOP-C) Lat,Lon (METOP-C) SZA (METOP-C ) Date (LANDSAT-8) Time (LANDSAT-8) Lat,Lon (LANDSAT-8) SZA (LANDSAT-8 ) Distance(km) Time Diff (sec)
1 08/18/2025 08:19:43 81.09, 94.30 70.07 08/18/2025 08:20:56 81.09, 94.26 70.10 0.77 73
2 08/18/2025 09:10:23 -81.11, -97.87 109.86 08/18/2025 09:10:22 -81.11, -97.79 109.85 1.49 1
3 08/18/2025 10:00:48 81.26, 74.94 70.84 08/18/2025 09:59:34 81.39, 74.83 70.89 14.81 74
4 08/21/2025 03:54:06 81.09, 160.77 71.02 08/21/2025 03:55:10 81.10, 160.86 71.06 1.77 64
5 08/21/2025 04:44:45 -81.12, -31.03 108.86 08/21/2025 04:44:36 -81.12, -31.17 108.88 2.37 9
6 08/23/2025 23:28:30 81.09,-132.81 71.99 08/23/2025 23:29:25 81.10,-132.66 72.03 2.80 55
7 08/24/2025 00:19:09 -81.12, 35.40 107.90 08/24/2025 00:18:51 -81.12, 35.34 107.91 1.05 18
8 08/26/2025 19:02:54 81.09, -66.43 72.97 08/26/2025 19:03:40 81.10, -66.29 73.01 2.39 46
9 08/26/2025 19:53:33 -81.12, 101.78 106.91 08/26/2025 19:53:06 -81.12, 101.72 106.93 1.04 27
10 08/29/2025 14:37:16 81.10, 0.29 74.02 08/29/2025 14:37:53 81.11, 0.32 74.04 0.72 37



Historial Predications of SNOs between METOP-C and LANDSAT-8
